Portland, ME

8:39 AM EDT on June 24, 2017 (GMT -0400)
Portland International

Weather History for KPWM - July, 2013

Change the Weather History Date:

Friday, July 19, 2013

  Actual Average Record
Temperature  
Mean Temperature 82 °F 70 °F  
Max Temperature 95 °F 79 °F 95 °F (2013)
Min Temperature 69 °F 60 °F 47 °F (1944)
Degree Days  
Heating Degree Days 0 0  
Month to date heating degree days 5 12  
Since 1 June heating degree days 86 118  
Since 1 July heating degree days 5 12  
Cooling Degree Days 17 5  
Month to date cooling degree days 165 85  
Year to date cooling degree days 263 149  
Since 1 June cooling degree days 248 142  
Growing Degree Days 32 (Base 50)    
Moisture  
Dew Point 71 °F    
Average Humidity 72    
Maximum Humidity 97    
Minimum Humidity 46    
Precipitation  
Precipitation 0.00 in 0.12 in 1.87 in (1951)
Month to date precipitation 1.96 2.21  
Year to date precipitation 25.08 25.20  
Snow  
Snow 0.00 in 0.00 in 0.00 in (2002)
Month to date snowfall 0.0 0.0  
Since 1 June snowfall 0.0 0.0  
Since 1 July snowfall 0.0 0.0  
Snow Depth 0.00 in    
Sea Level Pressure  
Sea Level Pressure 29.78 in    
Wind  
Wind Speed 9 mph (SW)    
Max Wind Speed 22 mph    
Max Gust Speed 32 mph    
Visibility 10 miles    
Events      
T = Trace of Precipitation, MM = Missing Value Source: NWS Daily Summary

Daily Weather History Graph

Daily Weather History Graph

Search for Another Location

Airport or City:

Trip Planner

Search our weather history database for the weather conditions in past years. The results will help you decide how hot, cold, wet, or windy it might be!

Date:

Astronomy

Jul. 19, 2013 Rise Set
Actual Time 5:17 AM EDT 8:17 PM EDT
Civil Twilight 4:43 AM EDT 8:51 PM EDT
Nautical Twilight 3:59 AM EDT 9:34 PM EDT
Astronomical Twilight 3:07 AM EDT 10:26 PM EDT
Moon 5:16 PM EDT (7/19) 1:56 AM EDT (7/19)
Length of Visible Light 16h 08m
Length of Day
14h 59m
Waxing Gibbous, 86% of the Moon is Illuminated
Jul 19
Waxing Gibbous
Jul 22
Full
Jul 29
Last Quarter
Aug 6
New
Aug 14
First Quarter

Hourly Weather History & Observations

Time (EDT) Temp. Heat Index Dew Point Humidity Pressure Visibility Wind Dir Wind Speed Gust Speed Precip Events Conditions
12:51 AM 69.1 °F - 66.9 °F 93% 29.95 in 10.0 mi ESE 6.9 mph - N/A   Clear
1:51 AM 69.1 °F - 66.9 °F 93% 29.93 in 10.0 mi SE 3.5 mph - N/A   Partly Cloudy
2:51 AM 70.0 °F - 68.0 °F 93% 29.91 in 9.0 mi Calm Calm - N/A   Clear
3:51 AM 69.1 °F - 68.0 °F 96% 29.89 in 10.0 mi Calm Calm - N/A   Clear
4:51 AM 69.1 °F - 68.0 °F 96% 29.88 in 6.0 mi Calm Calm - N/A   Clear
5:12 AM 69.1 °F - 68.0 °F 96% 29.87 in 10.0 mi Calm Calm - N/A   Partly Cloudy
5:51 AM 69.1 °F - 68.0 °F 96% 29.87 in 7.0 mi SW 4.6 mph - N/A   Scattered Clouds
6:51 AM 72.0 °F - 69.1 °F 91% 29.86 in 10.0 mi SW 5.8 mph - N/A   Clear
7:51 AM 75.0 °F - 70.0 °F 84% 29.86 in 10.0 mi SW 6.9 mph - N/A   Clear
8:51 AM 79.0 °F - 72.0 °F 79% 29.84 in 10.0 mi SSW 6.9 mph - N/A   Clear
9:51 AM 82.9 °F 88.0 °F 72.0 °F 69% 29.83 in 10.0 mi SSW 8.1 mph - N/A   Clear
10:51 AM 87.1 °F 95.4 °F 73.9 °F 65% 29.81 in 10.0 mi SW 8.1 mph - N/A   Clear
11:51 AM 89.1 °F 98.0 °F 73.9 °F 61% 29.78 in 10.0 mi SW 11.5 mph - N/A   Clear
12:51 PM 90.0 °F 96.4 °F 71.1 °F 54% 29.76 in 10.0 mi SW 11.5 mph - N/A   Clear
1:51 PM 93.0 °F 100.1 °F 71.1 °F 49% 29.73 in 10.0 mi SW 13.8 mph 23.0 mph N/A   Partly Cloudy
2:51 PM 93.9 °F 100.3 °F 70.0 °F 46% 29.70 in 10.0 mi SW 18.4 mph 32.2 mph N/A   Clear
3:51 PM 93.9 °F 100.8 °F 71.1 °F 47% 29.67 in 10.0 mi SW 18.4 mph 31.1 mph N/A   Clear
4:51 PM 95.0 °F 102.5 °F 71.1 °F 46% 29.65 in 10.0 mi WSW 15.0 mph 23.0 mph N/A   Clear
5:51 PM 93.9 °F 100.3 °F 70.0 °F 46% 29.65 in 10.0 mi WSW 12.7 mph 24.2 mph N/A   Clear
6:51 PM 91.9 °F 98.4 °F 71.1 °F 50% 29.65 in 10.0 mi SW 9.2 mph - N/A   Clear
7:51 PM 89.1 °F 96.0 °F 72.0 °F 57% 29.66 in 10.0 mi WSW 9.2 mph - N/A   Clear
8:51 PM 87.1 °F 93.6 °F 72.0 °F 61% 29.66 in 10.0 mi SSW 6.9 mph - N/A   Clear
9:51 PM 84.9 °F 91.4 °F 73.0 °F 67% 29.68 in 10.0 mi SSW 9.2 mph - N/A   Clear
10:51 PM 84.9 °F 91.4 °F 73.0 °F 67% 29.67 in 9.0 mi SW 11.5 mph - N/A   Clear
11:51 PM 82.9 °F 88.8 °F 73.0 °F 72% 29.68 in 9.0 mi West 9.2 mph - N/A   Scattered Clouds